| time (UTC) | temp F | wind direction | speed MPH | gust MPH | rain 1hr in | rain 24hr in | rain mn in | humidity % | barometer mb |
| 20260905185003 | 80 | 106 | 3.0 | 9.0 | 0.00 | 0.00 | 0.00 | 76 | 1015.0 |
| 20260905173005 | 76 | 128 | 5.0 | 10.0 | 0.00 | 0.00 | 0.00 | 83 | 1015.6 |
| 20260905170006 | 74 | 103 | 9.0 | 12.0 | 0.00 | 0.00 | 0.00 | 86 | 1016.2 |
| 20260905165004 | 73 | 80 | 4.0 | 9.0 | 0.00 | 0.00 | 0.00 | 87 | 1016.4 |
| 20260905153003 | 69 | 103 | 2.0 | 6.0 | 0.00 | 0.00 | 0.00 | 96 | 1016.9 |
| 20260905151004 | 68 | 127 | 4.0 | 7.0 | 0.00 | 0.00 | 0.00 | 96 | 1016.7 |
| 20260905150005 | 68 | 127 | 3.0 | 7.0 | 0.00 | 0.00 | 0.00 | 97 | 1016.5 |
| 20260905143002 | 67 | 119 | 5.0 | 10.0 | 0.00 | 0.00 | 0.00 | 97 | 1016.1 |
| 20260905142004 | 66 | 103 | 3.0 | 4.0 | 0.00 | 0.00 | 0.00 | 97 | 1015.8 |
| 20260905135002 | 66 | 90 | 3.0 | 8.0 | 0.00 | 0.00 | 0.00 | 97 | 1016.3 |
| 20260905132003 | 66 | 116 | 2.0 | 5.0 | 0.00 | 0.00 | 0.00 | 96 | 1016.2 |
| 20260905124004 | 65 | 94 | 0.0 | 0.0 | 0.00 | 0.00 | 0.00 | 96 | 1017.1 |
| 20260905120004 | 65 | 94 | 0.0 | 0.0 | 0.00 | 0.00 | 0.00 | 95 | 1015.8 |
| 20260905113004 | 65 | 42 | 0.0 | 3.0 | 0.00 | 0.00 | 0.00 | 96 | 1015.6 |
| 20260905112004 | 65 | 97 | 0.0 | 0.0 | 0.00 | 0.00 | 0.00 | 96 | 1015.6 |
| 20260905105004 | 66 | 141 | 0.0 | 0.0 | 0.00 | 0.00 | 0.00 | 96 | 1015.6 |
| 20260905104005 | 66 | 141 | 0.0 | 3.0 | 0.00 | 0.00 | 0.00 | 96 | 1015.5 |
| 20260905095003 | 65 | 153 | 0.0 | 0.0 | 0.00 | 0.00 | 0.00 | 96 | 1015.0 |
| 20260905090004 | 65 | 142 | 0.0 | 1.0 | 0.00 | 0.00 | 0.00 | 96 | 1014.7 |
| 20260905080003 | 66 | 123 | 0.0 | 0.0 | 0.00 | 0.00 | 0.00 | 95 | 1015.0 |
| 20260905072003 | 67 | 100 | 0.0 | 0.0 | 0.00 | 0.00 | 0.00 | 95 | 1015.4 |
| 20260905064005 | 68 | 28 | 0.0 | 1.0 | 0.00 | 0.00 | 0.00 | 93 | 1015.6 |
| 20260905063006 | 68 | 24 | 0.0 | 0.0 | 0.00 | 0.00 | 0.00 | 93 | 1015.5 |
| 20260905055003 | 70 | 42 | 0.0 | 0.0 | 0.00 | 0.00 | 0.00 | 92 | 1015.5 |
| 20260905054004 | 70 | 42 | 0.0 | 0.0 | 0.00 | 0.00 | 0.00 | 92 | 1015.5 |
| 20260905050005 | 71 | 82 | 0.0 | 3.0 | 0.00 | 0.00 | 0.00 | 91 | 1014.9 |
| 20260905042005 | 72 | 76 | 0.0 | 0.0 | 0.00 | 0.00 | 0.00 | 90 | 1014.6 |
| 20260905040003 | 73 | 86 | 0.0 | 0.0 | 0.00 | 0.00 | 0.00 | 89 | 1014.8 |
| 20260905025003 | 75 | 107 | 0.0 | 0.0 | 0.00 | 0.00 | 0.00 | 86 | 1014.6 |
| 20260905021005 | 76 | 92 | 0.0 | 0.0 | 0.00 | 0.00 | 0.00 | 85 | 1014.0 |
| 20260905020005 | 77 | 92 | 0.0 | 0.0 | 0.00 | 0.00 | 0.00 | 85 | 1013.6 |
| 20260905002003 | 82 | 81 | 0.0 | 0.0 | 0.00 | 0.00 | 0.00 | 77 | 1013.3 |
| 20260904230005 | 83 | 150 | 1.0 | 2.0 | 0.00 | 0.00 | 0.00 | 76 | 1013.4 |
| 20260904222006 | 82 | 41 | 3.0 | 10.0 | 0.00 | 0.00 | 0.00 | 76 | 1013.3 |
| 20260904220003 | 82 | 35 | 2.0 | 5.0 | 0.00 | 0.00 | 0.00 | 77 | 1013.3 |
| 20260904212004 | 82 | 54 | 2.0 | 6.0 | 0.00 | 0.00 | 0.00 | 77 | 1013.4 |
| 20260904204003 | 82 | 83 | 1.0 | 0.0 | 0.00 | 0.00 | 0.00 | 78 | 1013.5 |